Wind_Speed
5 8 9 6 2 3 3 6 3 3 3 6 3 4 6 9 4 5 8 7 9 32 33 36 37 38 37 36 36 34 33 31 29 27 25 25 26 25 23 22 24 23 23 23 22 22 21 22 20
7 8 8 3 3 4 5 5 8 12 11 2 4 11 2 5 9 6 4 8 14 23 32 38 38 38 38 37 35 34 32 31 30 28 27 28 27 24 22 22 24 24 24 23 23 23 21 22 22
7 8 5 4 4 9 5 6 14 11 26 15 10 5 6 4 7 6 15 12 14 24 31 39 39 38 38 36 36 34 33 31 30 29 29 29 28 24 23 22 23 25 26 26 25 26 24 23 25
6 5 2 3 11 5 5 2 5 3 13 15 4 7 4 11 13 13 11 17 16 22 33 38 40 38 38 37 36 34 33 31 30 31 31 31 27 25 23 24 25 28 29 28 27 27 27 26 27
6 3 2 6 5 4 4 6 7 6 5 7 17 5 13 8 6 4 10 19 24 24 31 38 40 40 39 38 36 35 34 33 32 32 33 31 28 25 24 27 29 30 29 30 33 31 28 27 28
2 0 3 5 5 3 2 24 14 7 8 5 12 11 3 10 11 11 2 21 28 31 33 39 40 38 38 38 37 36 35 34 33 34 34 31 29 25 27 30 31 30 32 33 32 31 29 29 28
3 2 5 3 4 2 7 24 7 9 11 7 17 5 11 10 27 22 11 15 28 31 38 41 42 41 39 38 38 37 35 34 34 36 35 32 29 27 29 30 31 32 33 31 30 28 26 25 24
3 2 4 3 2 3 9 18 7 10 4 22 17 5 9 37 33 30 19 14 22 30 36 41 43 43 39 39 39 37 35 35 35 36 35 32 30 28 31 32 32 33 31 29 28 26 24 22 20
3 3 2 4 5 4 12 9 4 10 9 21 5 17 23 29 33 31 24 7 17 21 30 42 45 46 43 41 40 38 37 36 37 37 35 32 31 32 34 33 32 31 29 27 25 23 22 21 21
4 1 4 4 6 6 13 11 19 8 14 9 21 29 31 35 36 35 32 28 8 9 17 29 43 48 45 43 42 40 39 38 39 39 37 34 34 35 36 34 32 29 28 26 24 21 19 18 20
7 1 3 4 11 14 11 11 14 14 5 10 23 31 33 35 34 32 35 30 26 19 14 13 38 48 47 47 44 43 43 42 41 42 39 36 36 37 38 36 34 34 32 29 26 22 17 18 20
3 2 3 9 18 11 6 11 11 10 10 30 28 32 30 34 32 31 32 36 33 23 22 15 28 46 48 49 49 46 46 45 45 44 41 41 40 41 41 39 38 39 35 31 26 22 19 18 19
2 4 13 18 14 12 12 9 7 23 24 21 32 39 33 28 34 33 33 33 31 36 30 25 12 36 50 50 51 49 48 48 48 46 43 41 43 45 45 43 41 39 35 30 26 23 21 21 22
7 11 15 10 6 16 8 8 9 5 13 24 25 36 39 30 31 32 32 35 37 36 40 30 20 18 36 49 51 53 50 51 50 49 45 42 45 47 48 44 41 39 35 30 27 25 24 24 27
10 6 5 6 11 6 14 6 5 6 26 18 29 34 41 37 29 32 32 32 36 39 39 37 21 21 28 49 53 54 54 55 52 51 46 43 47 48 49 43 44 40 36 32 29 27 27 30 30
5 3 6 8 12 6 5 13 5 28 17 32 26 31 38 38 33 32 35 32 28 35 42 40 30 28 20 43 56 56 55 57 55 52 48 45 47 49 49 44 46 43 39 34 31 30 32 33 33
6 4 11 8 6 8 4 24 3 25 28 24 25 29 32 37 33 31 31 30 28 30 32 39 41 28 24 25 53 58 60 59 56 54 50 47 47 50 50 46 47 45 41 37 34 33 32 37 35
10 7 5 17 8 16 15 23 20 31 24 20 14 13 18 24 24 23 25 27 29 28 27 33 39 35 31 22 40 64 63 61 59 56 52 48 47 50 51 49 49 47 43 40 37 35 36 38 39
7 3 14 19 17 14 23 22 19 18 8 11 14 17 20 27 28 29 28 30 31 31 33 31 37 39 32 30 19 68 69 66 61 57 53 48 46 54 54 49 50 46 42 39 36 37 40 41 40
7 14 11 14 10 21 14 19 6 6 4 10 14 18 22 31 39 36 33 29 30 30 26 29 29 40 33 32 27 63 62 65 62 57 53 49 49 55 55 53 53 48 43 37 39 38 45 43 41
11 10 10 17 30 7 7 5 4 3 4 12 16 19 22 25 32 37 40 37 33 31 30 29 25 29 39 27 15 32 62 60 57 60 58 53 53 56 55 54 54 51 42 39 40 39 43 47 44
10 7 21 22 13 3 5 4 6 3 5 9 20 29 32 33 36 34 34 42 38 33 31 32 28 31 34 28 25 35 52 58 60 59 58 56 56 58 57 56 55 51 45 39 39 38 42 44 46
7 17 22 13 0 4 4 2 6 4 5 12 18 30 31 34 35 39 38 40 40 38 32 31 40 31 31 28 28 13 51 57 55 57 60 58 58 61 60 57 55 54 46 40 37 41 42 42 42
11 13 10 2 3 3 4 3 5 2 3 9 19 29 31 39 39 39 38 40 41 37 34 26 36 42 35 30 23 22 3 57 59 58 61 62 63 62 61 61 59 55 48 40 37 39 41 41 41
9 9 5 7 4 5 3 8 9 4 3 13 23 37 40 40 40 41 40 40 39 38 35 26 30 40 36 30 23 26 36 55 63 64 63 64 64 63 65 63 61 54 48 40 37 37 40 40 40
4 4 3 5 7 16 17 6 6 3 17 34 46 42 44 42 41 42 39 40 38 34 31 27 30 36 37 24 21 23 15 52 63 64 64 64 65 67 64 61 59 55 51 44 38 34 38 39 37
5 4 2 5 7 3 4 7 4 9 18 31 38 41 42 43 46 44 42 39 34 29 29 30 30 30 35 32 32 17 19 39 63 65 62 62 65 68 66 64 59 57 51 47 40 36 38 39 36
4 3 4 2 6 8 7 7 5 14 28 29 29 38 45 49 47 45 42 37 28 26 27 28 29 31 33 37 25 19 32 19 57 65 61 65 66 67 67 64 60 55 52 50 43 38 36 38 37
2 3 2 2 4 4 7 5 5 17 28 28 28 43 46 47 44 47 43 37 26 24 27 30 25 28 33 39 29 20 31 26 56 60 65 66 65 63 68 63 60 57 52 50 44 41 36 39 38
2 3 3 2 5 5 5 7 5 23 25 32 37 44 46 40 46 42 41 33 23 17 27 31 28 33 32 37 23 21 24 31 57 58 62 65 70 67 66 64 62 56 53 50 46 44 36 39 40
Wind_Direction
167 175 168 162 60 74 235 249 288 266 250 221 170 171 191 205 184 223 329 156 201 183 181 178 178 177 175 174 174 174 172 170 168 166 163 160 157 152 148 149 150 147 147 143 140 138 136 129 130
160 170 162 153 143 227 236 226 220 233 220 344 306 275 301 275 284 283 167 179 169 192 184 180 181 180 178 176 175 175 174 172 169 167 163 160 157 153 146 143 147 148 149 147 144 140 136 133 132
165 171 158 155 203 225 222 215 227 240 253 292 320 299 300 300 327 264 249 211 185 194 189 183 183 183 181 178 176 175 174 172 171 168 165 162 157 153 148 150 152 150 149 145 142 137 134 132 133
155 162 162 194 228 242 209 209 213 296 285 280 306 280 325 12 344 310 260 210 193 189 190 185 186 184 183 180 178 176 175 174 172 169 165 161 157 154 153 157 155 149 146 145 140 135 133 133 129
167 170 219 241 241 249 269 303 329 320 316 296 312 274 295 352 30 275 204 208 199 191 192 186 190 187 185 182 180 178 176 174 174 171 166 162 160 158 156 153 153 150 147 142 137 133 132 134 131
195 108 229 239 222 221 36 0 323 349 352 2 9 322 202 38 10 11 200 199 210 196 191 187 190 193 190 184 182 179 177 176 174 171 167 165 163 162 156 155 155 152 149 144 143 138 139 136 136
160 168 240 265 230 242 359 350 23 351 328 354 341 275 303 266 351 358 327 212 203 206 189 187 188 191 193 189 184 181 179 176 173 171 170 167 165 164 161 160 158 156 153 148 147 144 144 142 143
212 172 255 245 249 139 356 342 339 20 307 324 358 23 331 326 328 335 339 227 203 204 199 190 190 191 191 192 187 182 179 177 173 173 173 170 165 165 163 163 162 161 158 156 152 149 149 148 151
211 271 276 338 17 337 354 349 352 314 291 319 297 331 320 316 315 325 340 300 201 198 201 196 191 193 191 192 190 183 182 179 177 176 174 171 166 164 164 167 167 166 163 163 160 158 155 152 155
51 254 29 41 10 340 324 332 319 326 316 293 313 312 313 318 319 323 325 333 296 280 201 207 201 195 193 194 191 185 184 181 180 178 175 173 169 167 168 169 170 171 166 164 162 159 156 158 154
351 120 338 11 342 339 325 324 325 323 320 6 320 324 320 320 323 325 315 314 317 297 279 245 206 200 195 194 190 187 186 183 182 179 176 175 169 167 169 167 170 168 168 162 161 161 159 158 154
6 16 19 320 328 334 317 322 320 302 285 309 306 313 316 314 319 317 316 312 304 295 299 286 203 205 199 195 189 190 188 186 182 181 179 175 171 171 170 170 172 170 170 165 164 160 155 154 154
75 316 315 319 319 324 301 303 298 289 292 297 302 302 312 312 307 309 309 304 299 294 299 269 239 200 205 199 192 190 191 188 185 184 182 179 174 174 173 175 176 172 170 169 164 161 158 155 155
303 297 314 325 318 330 299 307 280 282 314 311 315 309 308 310 310 310 309 305 302 296 288 301 287 185 204 203 200 193 192 190 189 187 185 180 178 176 177 180 177 173 172 170 167 165 160 155 153
311 333 354 357 316 303 325 318 209 288 315 305 307 307 306 307 309 310 312 309 302 294 292 293 292 201 215 211 204 196 190 192 191 190 188 184 181 181 182 184 179 175 171 173 169 165 163 157 152
9 41 348 308 300 272 2 295 214 299 303 301 297 299 301 304 307 307 309 307 305 298 291 282 279 279 230 205 208 200 190 194 194 193 189 189 185 185 185 188 180 175 173 175 172 169 163 157 154
18 284 305 314 245 300 15 293 294 283 286 281 291 293 298 305 313 314 311 307 301 299 294 281 272 277 249 189 211 205 193 194 196 195 192 193 189 188 186 190 182 177 174 176 175 168 169 160 152
301 302 278 300 281 303 293 287 298 293 275 277 317 347 341 331 329 321 306 295 291 289 290 286 278 268 263 242 198 201 196 195 195 196 196 195 193 191 189 192 186 180 178 177 177 173 167 166 155
268 263 290 291 294 301 302 293 311 322 66 53 14 1 346 338 335 328 317 306 298 289 288 277 275 268 270 249 228 201 190 190 193 196 197 195 190 191 192 191 187 184 183 183 181 177 174 166 161
309 300 297 288 297 318 306 297 279 78 105 43 3 351 342 335 337 332 323 317 301 296 281 276 277 267 265 255 246 198 182 189 189 193 194 195 192 194 193 194 188 186 185 188 186 186 175 173 170
326 300 302 293 317 305 335 307 268 306 49 13 2 349 338 330 327 327 322 317 308 293 285 271 260 266 255 263 270 184 184 185 183 191 196 196 193 196 197 195 191 188 197 198 192 193 189 177 177
315 329 305 308 330 288 61 285 283 293 303 354 349 347 335 330 326 320 313 310 307 293 284 269 258 260 258 258 254 206 188 179 184 186 191 193 193 197 197 196 194 192 194 202 199 197 195 190 180
282 313 295 304 38 33 338 21 268 342 334 345 342 334 324 322 319 314 310 307 301 293 281 272 246 251 252 254 252 284 196 194 186 184 187 192 193 197 199 201 198 195 194 203 201 196 199 198 191
323 309 322 27 65 11 245 87 272 294 267 325 329 327 321 320 316 311 308 305 299 291 280 269 245 249 259 258 259 292 237 188 188 180 183 188 191 196 198 201 202 197 193 205 204 202 201 201 197
2 352 350 1 0 243 212 330 252 202 306 341 333 334 325 319 314 312 309 303 300 289 277 264 238 238 245 238 243 274 223 191 186 183 182 183 185 190 198 202 200 199 199 202 206 207 205 202 201
345 83 114 301 317 299 302 230 267 158 349 345 338 322 320 317 315 311 308 303 298 284 273 260 235 232 244 247 248 264 212 190 186 188 184 186 186 195 198 202 201 202 202 205 205 212 211 205 206
321 25 255 266 261 292 259 285 334 341 347 334 323 321 319 317 317 313 311 305 298 278 262 244 226 229 236 237 228 242 217 199 188 192 185 184 195 198 200 202 202 206 204 206 203 210 212 208 208
100 306 357 8 314 314 280 298 260 334 336 331 325 323 320 319 317 316 313 306 294 270 261 236 216 219 224 219 231 234 215 223 186 186 187 188 198 198 199 201 204 205 204 205 202 206 212 208 207
355 349 315 227 252 279 303 292 205 345 335 324 322 319 317 316 318 316 314 317 300 274 250 223 204 213 211 207 220 217 219 233 189 184 187 195 193 197 200 200 202 205 203 203 204 206 210 207 206
133 220 196 308 306 269 264 273 215 342 328 324 319 317 316 316 319 319 318 320 308 277 231 208 195 195 203 205 223 206 210 215 189 184 187 186 196 199 199 200 202 203 204 201 202 205 206 208 205
Height
1502 1503 1506 1508 1518 1518 1516 1506 1497 1491 1489 1480 1481 1482 1482 1479 1481 1493 1474 1473 1474 1478 1482 1487 1491 1493 1496 1500 1503 1507 1509 1512 1515 1519 1523 1526 1530 1532 1534 1535 1537 1540 1542 1544 1546 1548 1550 1551 1553
1502 1503 1506 1507 1519 1518 1509 1499 1495 1485 1479 1478 1481 1480 1481 1480 1479 1477 1476 1475 1476 1478 1480 1486 1491 1494 1496 1498 1503 1506 1510 1513 1515 1519 1522 1527 1530 1533 1535 1537 1539 1541 1543 1546 1548 1550 1552 1553 1555
1502 1503 1505 1508 1511 1501 1503 1492 1484 1481 1479 1481 1481 1481 1481 1479 1478 1478 1477 1476 1476 1477 1480 1484 1490 1494 1496 1499 1501 1506 1509 1513 1516 1519 1523 1526 1531 1533 1537 1539 1541 1543 1545 1547 1549 1552 1554 1556 1558
1501 1504 1506 1508 1499 1497 1490 1485 1485 1483 1481 1479 1481 1482 1482 1481 1479 1478 1477 1475 1474 1476 1480 1485 1490 1494 1496 1500 1502 1505 1509 1513 1516 1519 1522 1527 1531 1534 1537 1539 1542 1544 1547 1549 1551 1554 1556 1559 1560
1501 1501 1505 1501 1497 1489 1485 1484 1485 1483 1483 1481 1480 1480 1478 1476 1478 1474 1474 1479 1473 1473 1476 1484 1489 1492 1494 1499 1503 1505 1508 1513 1517 1520 1523 1526 1530 1535 1537 1540 1543 1546 1549 1551 1554 1556 1559 1562 1564
1502 1501 1503 1500 1492 1487 1486 1488 1487 1484 1483 1482 1483 1481 1476 1475 1473 1471 1470 1474 1480 1473 1472 1477 1486 1493 1496 1498 1502 1505 1508 1511 1516 1520 1523 1525 1530 1535 1538 1541 1544 1547 1550 1553 1556 1558 1561 1564 1567
1500 1503 1500 1495 1493 1488 1495 1494 1491 1491 1486 1486 1486 1482 1475 1471 1471 1472 1471 1471 1475 1481 1472 1477 1482 1488 1495 1499 1501 1504 1508 1512 1515 1520 1523 1525 1530 1535 1539 1543 1546 1549 1552 1555 1558 1560 1564 1566 1569
1499 1499 1494 1492 1492 1495 1498 1495 1493 1493 1490 1487 1486 1486 1480 1474 1472 1471 1470 1469 1469 1478 1480 1474 1481 1485 1492 1497 1501 1503 1508 1512 1516 1520 1524 1527 1530 1535 1540 1544 1547 1550 1554 1556 1561 1563 1566 1568 1571
1498 1502 1501 1497 1499 1501 1500 1498 1494 1493 1490 1489 1488 1488 1485 1479 1475 1472 1469 1465 1467 1474 1481 1479 1477 1483 1487 1493 1498 1503 1507 1511 1516 1520 1524 1528 1530 1535 1539 1544 1548 1551 1555 1558 1562 1564 1567 1569 1572
1498 1501 1504 1505 1503 1503 1500 1499 1495 1492 1489 1483 1481 1482 1481 1476 1475 1473 1470 1467 1465 1462 1463 1478 1480 1479 1483 1488 1496 1502 1506 1509 1514 1519 1522 1526 1530 1533 1538 1543 1549 1552 1556 1559 1562 1565 1568 1570 1572
1504 1504 1504 1503 1504 1503 1500 1497 1495 1491 1483 1484 1481 1478 1476 1474 1474 1474 1472 1472 1468 1464 1461 1467 1474 1478 1480 1483 1492 1498 1502 1506 1511 1517 1520 1525 1529 1533 1536 1542 1547 1551 1555 1559 1562 1566 1569 1572 1574
1506 1505 1504 1502 1500 1500 1498 1498 1495 1492 1489 1486 1482 1479 1476 1475 1473 1472 1471 1468 1465 1467 1461 1463 1462 1474 1476 1479 1485 1493 1497 1502 1508 1513 1518 1522 1527 1532 1535 1539 1544 1548 1554 1558 1562 1566 1570 1573 1576
1506 1505 1504 1503 1500 1499 1496 1496 1495 1490 1486 1483 1478 1471 1473 1472 1471 1470 1470 1471 1471 1460 1467 1461 1460 1464 1471 1476 1481 1487 1494 1498 1504 1510 1515 1519 1524 1529 1533 1537 1541 1548 1554 1559 1563 1567 1571 1574 1576
1506 1505 1503 1501 1499 1496 1493 1492 1491 1484 1484 1481 1478 1469 1466 1468 1468 1466 1466 1464 1460 1460 1455 1459 1438 1443 1459 1472 1476 1480 1489 1495 1500 1506 1512 1518 1522 1526 1531 1536 1541 1547 1554 1559 1563 1567 1571 1574 1578
1505 1505 1503 1501 1498 1496 1492 1489 1487 1483 1481 1478 1475 1469 1460 1462 1464 1464 1463 1460 1458 1456 1453 1437 1432 1446 1455 1467 1472 1476 1481 1489 1496 1501 1508 1514 1519 1524 1529 1536 1540 1546 1552 1558 1563 1567 1571 1574 1579
1508 1508 1511 1501 1497 1495 1495 1481 1481 1480 1476 1472 1470 1466 1459 1455 1458 1459 1459 1458 1458 1453 1445 1448 1450 1453 1451 1461 1464 1470 1474 1482 1491 1498 1504 1509 1516 1522 1527 1535 1539 1544 1551 1557 1562 1565 1570 1575 1580
1519 1527 1512 1501 1495 1493 1495 1476 1477 1475 1471 1465 1466 1463 1458 1451 1453 1454 1454 1453 1452 1452 1451 1451 1445 1446 1447 1445 1457 1463 1469 1476 1485 1493 1499 1505 1512 1519 1526 1532 1538 1543 1549 1556 1560 1565 1570 1575 1580
1522 1522 1514 1506 1490 1490 1486 1475 1468 1464 1461 1461 1462 1460 1456 1452 1450 1450 1448 1446 1446 1445 1446 1439 1442 1442 1440 1425 1447 1455 1461 1470 1478 1486 1493 1501 1509 1517 1523 1530 1536 1542 1548 1554 1559 1564 1571 1575 1579
1521 1525 1516 1499 1489 1486 1480 1470 1464 1455 1457 1459 1460 1459 1456 1452 1448 1446 1444 1440 1437 1436 1434 1440 1431 1430 1427 1423 1430 1442 1444 1456 1469 1480 1489 1498 1506 1512 1518 1526 1533 1540 1546 1552 1559 1563 1567 1574 1579
1516 1514 1509 1489 1485 1484 1472 1470 1467 1459 1458 1459 1459 1457 1455 1449 1443 1441 1439 1436 1432 1426 1430 1425 1421 1424 1425 1422 1425 1425 1432 1450 1460 1473 1484 1494 1503 1507 1514 1521 1529 1537 1544 1551 1556 1561 1565 1572 1578
1515 1513 1506 1504 1477 1478 1474 1472 1465 1461 1459 1459 1458 1457 1454 1449 1443 1437 1433 1431 1426 1420 1417 1416 1425 1420 1428 1428 1426 1403 1431 1444 1455 1465 1476 1487 1498 1503 1511 1518 1524 1532 1541 1548 1554 1558 1562 1567 1575
1514 1506 1499 1490 1495 1510 1480 1497 1468 1462 1458 1458 1455 1452 1448 1443 1438 1435 1431 1425 1424 1419 1411 1410 1412 1417 1418 1432 1418 1426 1423 1429 1444 1458 1470 1482 1492 1498 1507 1515 1521 1529 1536 1544 1551 1558 1562 1566 1569
1513 1504 1490 1489 1504 1508 1490 1502 1470 1463 1461 1459 1454 1451 1446 1440 1435 1428 1423 1418 1415 1413 1410 1407 1409 1419 1421 1423 1417 1420 1426 1432 1442 1453 1465 1476 1486 1491 1501 1510 1519 1527 1532 1541 1548 1555 1560 1566 1569
1513 1502 1492 1493 1503 1522 1503 1505 1470 1469 1466 1461 1458 1453 1445 1435 1428 1422 1416 1409 1401 1402 1401 1399 1399 1401 1404 1407 1406 1404 1409 1424 1436 1444 1455 1468 1478 1485 1495 1506 1516 1523 1529 1538 1545 1552 1557 1563 1570
1519 1516 1537 1530 1530 1515 1486 1487 1471 1463 1462 1459 1450 1442 1438 1430 1421 1413 1406 1399 1391 1385 1384 1389 1394 1397 1406 1418 1417 1419 1416 1418 1424 1437 1448 1460 1469 1477 1489 1500 1511 1519 1527 1535 1543 1549 1555 1562 1568
1529 1540 1552 1550 1511 1488 1479 1492 1468 1460 1458 1452 1447 1440 1430 1421 1414 1405 1397 1388 1380 1373 1369 1374 1384 1388 1389 1394 1401 1398 1404 1413 1420 1433 1442 1454 1461 1473 1484 1495 1507 1516 1524 1533 1541 1548 1554 1560 1566
1533 1544 1532 1538 1519 1520 1486 1475 1463 1458 1455 1453 1444 1434 1424 1414 1403 1393 1386 1377 1370 1367 1366 1367 1373 1377 1384 1396 1405 1403 1403 1409 1413 1426 1439 1448 1457 1470 1479 1489 1500 1510 1520 1528 1536 1543 1549 1557 1563
1536 1536 1541 1550 1530 1515 1475 1477 1472 1462 1449 1445 1435 1427 1415 1403 1393 1383 1374 1366 1360 1358 1356 1359 1367 1380 1386 1390 1389 1395 1399 1405 1410 1423 1434 1442 1456 1468 1475 1484 1495 1506 1516 1525 1532 1539 1545 1553 1560
1538 1549 1542 1542 1528 1514 1492 1465 1467 1459 1453 1443 1433 1423 1411 1399 1387 1374 1363 1356 1351 1347 1349 1353 1356 1366 1375 1385 1394 1399 1402 1405 1410 1418 1431 1439 1451 1464 1473 1478 1490 1500 1511 1521 1528 1536 1542 1549 1556
1536 1540 1544 1535 1519 1514 1506 1476 1458 1457 1454 1446 1432 1418 1405 1393 1381 1368 1356 1347 1342 1339 1338 1344 1351 1360 1366 1380 1390 1390 1399 1406 1407 1418 1427 1437 1442 1458 1469 1475 1484 1496 1507 1516 1524 1531 1539 1545 1551